Regional Weather Roundup
Issued by NWS Wakefield, VA

Home | Current Version | Previous Version | Graphics & Text | Print | Product List | Glossary On
Versions: 1 2 3 4 5 6 7 8 9 10 11 12 13 14 15 16 17 18 19 20 21 22 23 24 25 26 27 28
000
ASUS41 KAKQ 150110
RWRAKQ

REGIONAL WEATHER ROUNDUP
NATIONAL WEATHER SERVICE WAKEFIELD VA
900 PM EDT MON APR 14 2014

Note: "fair" indicates few or no clouds below 12,000 feet with no
significant weather and/or obstructions to visibility. * = Denotes
station may not report precipitation (e.g., rain,snow,etc.),
thunder or fog.

VAZ042-051-052>054-056-150200-
NORTHERN VIRGINIA

CITY           SKY/WX    TMP DP  RH WIND       PRES   REMARKS
WASH NATIONAL  CLOUDY    72  55  55 S10       29.83S
DULLES         CLOUDY    71  49  45 S8        29.82S
FORT BELVOIR   CLOUDY    73  52  47 SE10      29.84R
QUANTICO       CLOUDY    66  56  70 SW6       29.85R
FREDERICKSBRG* CLOUDY    73  54  49 S10       29.83R
STAFFORD*      CLOUDY    73  54  50 S7        29.88R
WARRENTON      CLOUDY    72  58  60 S3        29.83R
CULPEPER*      CLOUDY    73  50  43 CALM      29.83S
MANASSAS*      CLOUDY    70  54  56 S8        29.83R
LEESBURG*      CLOUDY    72  54  53 S8        29.83S
WINCHESTER     CLOUDY    70  52  52 S8        29.80R
$$

VAZ048-049-060>072-079>083-150200-
CENTRAL AND SOUTH CENTRAL VIRGINIA...AND NORTH CENTRAL NORTH CAROLINA

CITY           SKY/WX    TMP DP  RH WIND       PRES   REMARKS
RICHMOND       CLOUDY    73  57  57 S15G22    29.87S
CHESTERFIELD*  CLOUDY    72  54  53 S14G24    29.90R
HANOVER        CLOUDY    73  56  54 S10       29.87S
TAPPAHANNOCK*  CLOUDY    73  52  48 S8        29.88R
CHARLOTTSVILLE CLOUDY    69  52  54 S9        29.82S
ORANGE*        CLOUDY    70  50  49 SE3       29.85S
LOUISA*        CLOUDY    72  54  53 S7        29.83S
FARMVILLE*     CLOUDY    72  55  56 S18       29.83R
SOUTH HILL*    CLOUDY    66  66 100 CALM      29.95F
ROANOKE RAPIDS   N/A    N/A N/A N/A MISG        N/A
RALEIGH        CLOUDY    64  60  87 S6        29.90F
$$

VAZ088>098-150200-
SOUTHEAST VIRGINIA

CITY           SKY/WX    TMP DP  RH WIND       PRES   REMARKS
NORFOLK        MOCLDY    71  59  65 S15G22    29.92S
VIRGINIA BEACH CLOUDY    71  60  68 S10G20    29.94R
NORFOLK NAVAL  CLOUDY    73  59  61 S9G21     29.93S
WEST POINT*    CLOUDY    75  55  49 S6        29.90S
NEWPORT NEWS   MOCLDY    75  57  53 S16G23    29.91R
LANGLEY AFB    LGT RAIN  72  61  68 S16       29.92R
FORT EUSTIS    CLOUDY    73  60  65 S9        29.90R
WILLIAMSBURG*  CLOUDY    73  61  64 S6        29.91R
FRANKLIN*      CLOUDY    73  57  56 S12       29.92R
WAKEFIELD      CLOUDY    73  57  57 S6        29.91R
$$

VAZ020-022-025-037-045-150200-
WESTERN AND SOUTHWEST VIRGINIA

CITY           SKY/WX    TMP DP  RH WIND       PRES   REMARKS
STAUNTON*      CLOUDY    67  51  57 S6        29.85R
HOT SPRINGS VA CLOUDY    55  54  94 S10G16    29.93S
LYNCHBURG      CLOUDY    73  53  49 S9        29.84F
DANVILLE       MOCLDY    67  59  75 S8        29.86R
MARTINSVILLE   CLOUDY    69  56  64 S5        29.86S
ROANOKE        LGT RAIN  68  53  58 S9        29.84F
BLACKSBURG     LGT RAIN  64  57  77 S6        29.87S
DUBLIN*        CLOUDY    61  57  88 S7        29.86S
MARION*        CLOUDY    62  54  76 S8        29.86S
HILLSVILLE*    CLOUDY    59  54  82 S8        29.90S
RICHLANDS*     CLOUDY    65  55  69 S5        29.83S
WISE*          PTCLDY    61  52  72 S8        29.83R
ABINGDON*      CLOUDY    64  59  84 CALM      29.82R
$$

MDZ021>025-VAZ099-100-150200-
SOUTHERN MARYLAND AND THE DELMARVA PENINSULA

CITY           SKY/WX    TMP DP  RH WIND       PRES   REMARKS
PATUXENT RIVER CLOUDY    62  55  77 SE9       29.87S
BAY BRIDGE APT CLOUDY    66  57  72 SE13G23   29.86R
LEONARDTOWN    CLOUDY    66  54  63 SE5       29.88S
DOVER          CLOUDY    67  60  77 SE14      29.85F
GEORGETOWN     CLOUDY    66  58  75 S9        29.92S
EASTON         NOT AVBL
CAMBRIDGE      CLOUDY    70  57  64 S10       29.89R
SALISBURY      CLOUDY    68  55  63 S10       29.91F
OCEAN CITY     CLOUDY    58  55  90 SW13G18   29.95S
WALLOPS ISLAND CLOUDY    60  58  92 SW15G24   29.94S
ACCOMACK*      CLOUDY    70  61  73 S12G22    29.94R
$$

NCZ012>017-030>032-150200-
EASTERN NORTH CAROLINA

CITY           SKY/WX    TMP DP  RH WIND       PRES   REMARKS
ELIZABETH CITY CLOUDY    69  61  75 S12G18    29.96S
AHOSKIE*       CLOUDY    70  58  65 S7        29.93R
EDENTON*       CLOUDY    68  63  82 S9        29.95S
CURRITUCK*     CLOUDY    69  58  66 S6        29.97R
KILL DEVIL HLS CLOUDY    68  63  85 S7        29.97S
MANTEO         CLOUDY    67  64  91 S15       29.99S
CAPE HATTERAS  CLOUDY    68  66  93 S14G21    30.00S
GOLDSBORO      CLOUDY    67  67  98 VRB6      29.91S
WASHINGTON     CLOUDY    73  67  82 S6        29.95S
GREENVILLE     CLOUDY    72  63  73 S13       29.96S
NEW BERN       CLOUDY    71  65  81 S7        29.97S
WILMINGTON     CLOUDY    68  64  87 S7        29.95S
$$

VAZ048-150200-
ELSEWHERE

CITY           SKY/WX    TMP DP  RH WIND       PRES   REMARKS
HARRISBURG PA  CLOUDY    71  51  49 S8G18     29.78S
BALTIMORE      CLOUDY    67  54  63 S8        29.83R
ANNAPOLIS      CLOUDY    66  57  72 S15       29.85R
ANDREWS AFB    CLOUDY    71  53  51 S10       29.84R
WILMINGTON DE  CLOUDY    64  55  72 S14       29.87S
PHILADELPHIA   CLOUDY    68  54  60 S15       29.88S
WILDWOOD NJ*   CLOUDY    59  54  82 S18G25    29.95S
ATLANTIC CITY  MOCLDY    61  57  87 S16G26    29.93S
HENDERSON NC   CLOUDY    64  62  95 S3        29.89F
GREENSBORO     CLOUDY    65  60  84 S14       29.84F
ROCKY MOUNT      N/A    N/A N/A N/A MISG      29.91S
FAYETTEVILLE   CLOUDY    67  64  90 SE10      29.89F
CHARLOTTE      CLOUDY    69  63  81 S10       29.85F
$$

VAZ100-150200-
MARINE

STATION/POSITION TIME  TEMP    WIND        PRES    WAVE   SWELL
                       AIR SEA DIR/SP/G            HT/PER HT/PER
                 (UTC) (F)     (DEG/KT/KT) (MB)    (FT/S) (FT/S)
44066 TX TWR #4  0100   53 46  180/ 16/ 17 1015.7R   6/ 8   3/ 8
CAPE MAY NJ      0100   56 58  170/ 16/ 21 1013.2S
LEWES DE         0100   65 51  170/ 11/ 17 1012.3F
15NM E FENWICK I 0100   54 48              1013.8F   4/ 6
OCEAN-CITY-INLET 0100   52 44  220/ 11/ 13 1013.7S
WACHAPREAGUE VA  0100   62 67  190/ 18/ 20 1013.3R
THOMAS POINT MD  0100   62 53  160/ 17/ 17 1011.6R
GOOSES REEF MD   0100   57     180/ 16/ 17 1011.6F
COVE POINT MD    0100   56     180/ 18/ 19 1011.3S
SOLOMONS ISLAND  0100      56                N/A
BISHOPS HEAD MD  0100   63 65  160/ 17/ 19 1011.8R
PINEY POINT MD   0100          150/ 11/ 12   N/A
POTOMAC MD       0100   60     170/ 12/ 14 1011.5S
CAMBRIDGE MD     0100   68 55  160/  6/ 11 1011.5R
LEWISETTA VA     0100   65 60  170/  5/  7 1011.6R
RAPPAHANNOCK LGT 0100          140/ 19/ 20 1013.1R
STINGRAY PT      0100   57     180/ 12/ 14 1012.7R
YORK RVR RNG VA  0100   68     180/ 17/ 20 1011.9R
YORKTOWN VA      0100   73 57  180/  8/ 11 1012.2R
JAMESTOWN VA     0100   71     200/  6/  8   N/A
DOMINION TERM VA 0100   68     160/ 16/ 18 1012.6S
KIPTOPEKE VA     0100      58  170/ 19/ 21   N/A
CHES BAY BRIDGE  0100   69 56  160/ 13/ 15 1013.4R
CAPE HENRY VA    0100   60     150/  8/ 10   N/A
CHESAPEAKE LGHT  0000   60     170/ 26/ 28 1013.9R
WILLOUBY STN VA  0100   71     180/ 20/ 25 1012.1F
S CRANEY ISL VA  0100          160/  8/ 13 1013.1F
CAPE HENRY BUOY  0100      53                N/A     4/ 6
1ST LANDING BUOY 0100      53                N/A     4/ 6   2/ 7
64NM E OF VA BCH 0100   63 62  160/ 16/ 17 1015.6R   6/ 7
DUCK PIER NC     0100   68 47  180/ 14/ 16 1014.0S
44100 DUCK FRF   0100      53                N/A     4/ 6
44056 DUCK FRF   0100      47                N/A     3/ 6
OREGON INLET NC  0100   68 72  170/ 15/ 18 1015.5F
HATTERAS NC      0100   69 67  170/ 11/ 14 1015.9S
CAPE LOOKOUT NC  0000   66     170/ 11/ 14 1015.2F
FRYING PAN SHLS  0100   70 67  170/ 14/ 17 1014.1S   6/ 7   3/ 8
$$



USA.gov is the U.S. government's official web portal to all federal, state and local government web resources and services.